CGMPW KJRB-KJRB

Flight info

Callsign CGMPW
Flight time 0h 0m
Altitude 1200
Route FLIGHT AROUND NYC WITH HELICOPTER
Aircraft AS50/L-VGD/A

Departure

Time 2026-05-04 07:44
Airport Downtown Manhattan Heliport (KJRB)

Arrival

Time 2026-05-04 07:44
Airport Downtown Manhattan Heliport (KJRB)
Time Latitude Longitude Altitude Speed Heading
2026-05-04 07:34 40.70126 -74.00779 10 ft 0 kts 155°
2026-05-04 07:38 40.70117 -74.00771 42 ft 3 kts 153°
2026-05-04 07:38 40.70101 -74.00749 58 ft 6 kts 222°
2026-05-04 07:38 40.69972 -74.01015 316 ft 68 kts 246°
2026-05-04 07:39 40.69711 -74.01733 422 ft 102 kts 241°
2026-05-04 07:39 40.69413 -74.02440 518 ft 80 kts 244°
2026-05-04 07:39 40.69130 -74.03071 462 ft 82 kts 249°
2026-05-04 07:39 40.68912 -74.03830 383 ft 97 kts 255°
2026-05-04 07:40 40.68906 -74.04715 300 ft 101 kts 298°
2026-05-04 07:40 40.69544 -74.04673 294 ft 108 kts 41°
2026-05-04 07:40 40.69969 -74.03881 368 ft 107 kts 53°
2026-05-04 07:40 40.70629 -74.03413 281 ft 104 kts 14°
2026-05-04 07:41 40.71129 -74.03254 150 ft 40 kts 14°
2026-05-04 07:41 40.71271 -74.03208 86 ft 11 kts
2026-05-04 07:41 40.71315 -74.03197 62 ft 6 kts 359°
2026-05-04 07:41 40.71342 -74.03200 15 ft 0 kts
2026-05-04 07:43 40.71344 -74.03198 50 ft 4 kts 355°
2026-05-04 07:43 40.71668 -74.03062 333 ft 85 kts 25°
2026-05-04 07:43 40.72325 -74.02861 494 ft 106 kts 353°
2026-05-04 07:44 40.73187 -74.02590 417 ft 135 kts 14°
2026-05-04 07:44 40.73904 -74.02662 689 ft 83 kts 320°
2026-05-04 07:44 40.74059 -74.02978 711 ft 21 kts 287°
2026-05-04 07:44 40.73960 -74.03306 848 ft 55 kts 246°
2026-05-04 07:45 40.73598 -74.03621 1014 ft 65 kts 213°
2026-05-04 07:45 40.73087 -74.03901 835 ft 97 kts 219°
2026-05-04 07:45 40.72583 -74.04431 882 ft 94 kts 227°
2026-05-04 07:45 40.72053 -74.04910 842 ft 96 kts 225°
2026-05-04 07:46 40.71554 -74.05450 896 ft 79 kts 222°
2026-05-04 07:46 40.71089 -74.05640 1018 ft 69 kts 225°
2026-05-04 07:46 40.70676 -74.05978 991 ft 77 kts 216°
2026-05-04 07:46 40.70302 -74.06383 746 ft 60 kts 221°
2026-05-04 07:47 40.70210 -74.06698 475 ft 25 kts 271°
2026-05-04 07:47 40.70307 -74.06982 405 ft 38 kts 287°
2026-05-04 07:47 40.70218 -74.07186 776 ft 47 kts 198°
2026-05-04 07:49 40.70052 -74.01014 124 ft 71 kts 67°
2026-05-04 07:49 40.70166 -74.00826 39 ft 13 kts 162°
2026-05-04 07:49 40.70124 -74.00802 20 ft 2 kts 148°